Back to catalog

FALCON 9 R/B

AliveHEO
NORAD 44480·ROCKET BODY·🇺🇸 United States

Launched Aug 6, 2019 from Cape Canaveral Space Force Station

Loading…

Next Passes (next 24 hours)

TLE

FreshSource: Space-Track

Epoch: Sep 13, 2026, 17:12 UTC

1 44480U 19050B   26256.71720244  .00025218  00000-0  74691-3 0  9991
2 44480  26.2199  34.4867 5692447 257.5751  36.4653  4.59678937 84302

Track FALCON 9 R/B in real time with AllMySat

Download on the App Store